{"data":{"norad_id":45154,"epoch":"2026-09-20T03:15:47.426112Z","epoch_age_seconds":45742,"freshness":"FRESH","line1":"1 45154U 20008Z   26263.13596558 -.00000057  00000+0 -20044-3 0  9996","line2":"2 45154  87.8906  17.3718 0001837 113.9034 246.2286 13.10376704320463","mean_motion":13.10376704,"eccentricity":0.0001837,"inclination_deg":87.8906,"raan_deg":17.3718,"arg_perigee_deg":113.9034,"mean_anomaly_deg":246.2286,"bstar":-0.00020044,"rev_number":32046,"period_min":109.89206352679,"perigee_km":1220.306031244,"apogee_km":1223.0982121373,"semimajor_km":7599.8391216907,"source":"CELESTRAK","updated_at":"2026-09-20T09:00:44.549453Z"}}